Location: Limoges
(45.8354°N, 1.2645°E)
Time: 12:10:38
(UTC+01:00)

Tiros 1 - Visible Passes

Search period start: 22 February 2024 00:00
Search period end: 03 March 2024 00:00
Orbit: 625 x 658 km, 48.4° (Epoch: 21 February)

Date Brightness Start Highest point End Pass type
(mag) Time Alt. Az. Time Alt. Az. Time Alt. Az.
22 Feb 9.0 06:06:30 15° SSW 06:06:30 15° SSW 06:08:13 10° S visible
26 Feb 8.9 20:10:01 10° S 20:12:25 17° SSE 20:12:25 17° SSE visible
26 Feb 10.0 21:49:55 10° SW 21:50:02 11° SW 21:50:02 11° SW visible
27 Feb 8.1 20:32:50 10° SSW 20:36:24 32° SSE 20:36:24 32° SSE visible
28 Feb 8.9 19:16:58 10° S 19:19:48 16° SE 19:22:38 10° E visible
28 Feb 7.7 20:56:31 10° SW 21:00:14 48° SSW 21:00:14 48° SSW visible
29 Feb 8.2 19:39:32 10° SSW 19:43:41 30° SE 19:46:22 18° E visible
29 Feb 8.1 21:20:39 10° WSW 21:23:57 45° WSW 21:23:57 45° WSW visible
01 Mar 7.4 20:03:06 10° SW 20:07:44 53° SSE 20:09:59 28° E visible
01 Mar 8.8 21:45:02 10° W 21:47:34 31° W 21:47:34 31° W visible
02 Mar 7.1 20:27:10 10° WSW 20:31:56 84° SSE 20:33:31 43° ENE visible
02 Mar 9.5 22:09:29 10° W 22:11:04 20° WNW 22:11:04 20° WNW visible
